When you browse on this site, cookies collect data to enhance your experience and personalize the content and advertising you see.
Visit our Privacy Policy to learn more. By continuing to use the site, you agree to this use of cookies and data.
  • en Suisse
  • Liste des pays
  • À 7 jours
  • Température de l'eau
  • Carte météo
  • Widgets météo
  • user-avatar
    Se connecter

    Météo par heure à Bautzen

    Ce jour, 7 Juin, Dimanche

    Heure Température Précipitation Vent Pression Humidité
    00:00 +10°C° 0 mm 3 m/s 737 mmHg 91%
    01:00 +10°C° 0 mm 3 m/s 737 mmHg 92%
    02:00 +12°C° 0 mm 2 m/s 737 mmHg 92%
    03:00 +12°C° 0 mm 2 m/s 737 mmHg 92%
    04:00 +12°C° 0 mm 2 m/s 737 mmHg 91%
    05:00 +12°C° 0.1 mm 3 m/s 737 mmHg 90%
    06:00 +13°C° 0.1 mm 3 m/s 737 mmHg 88%
    07:00 +14°C° 0.1 mm 3 m/s 737 mmHg 86%
    08:00 +16°C° 0.1 mm 3 m/s 738 mmHg 82%
    09:00 +17°C° 0.1 mm 2 m/s 738 mmHg 79%
    10:00 +18°C° 0.1 mm 2 m/s 738 mmHg 75%
    11:00 +18°C° 0.3 mm 2 m/s 738 mmHg 79%
    12:00 +17°C° 0.3 mm 2 m/s 738 mmHg 83%
    13:00 +17°C° 0.3 mm 2 m/s 738 mmHg 86%
    14:00 +17°C° 0 mm 2 m/s 738 mmHg 85%
    15:00 +18°C° 0 mm 1 m/s 738 mmHg 84%
    16:00 +18°C° 0 mm 1 m/s 738 mmHg 83%
    17:00 +16°C° 0 mm 2 m/s 738 mmHg 83%
    18:00 +16°C° 0 mm 2 m/s 738 mmHg 83%
    19:00 +15°C° 0 mm 2 m/s 738 mmHg 82%
    20:00 +13°C° 0.4 mm 3 m/s 739 mmHg 83%
    21:00 +12°C° 0.4 mm 3 m/s 739 mmHg 84%
    22:00 +12°C° 0.4 mm 4 m/s 739 mmHg 85%
    23:00 +11°C° 0.7 mm 3 m/s 739 mmHg 88%

    Demain, 8 Juin, Lundi

    Heure Température Précipitation Vent Pression Humidité
    00:00 +11°C° 0.7 mm 3 m/s 739 mmHg 91%
    01:00 +11°C° 0.7 mm 3 m/s 739 mmHg 94%
    02:00 +12°C° 1.2 mm 2 m/s 739 mmHg 95%
    03:00 +10°C° 1.2 mm 2 m/s 740 mmHg 95%
    04:00 +11°C° 1.2 mm 1 m/s 740 mmHg 96%
    05:00 +12°C° 0.2 mm 1 m/s 740 mmHg 95%
    06:00 +12°C° 0.2 mm 2 m/s 740 mmHg 94%
    07:00 +12°C° 0.2 mm 2 m/s 740 mmHg 92%
    08:00 +14°C° 0 mm 2 m/s 741 mmHg 85%
    09:00 +15°C° 0 mm 2 m/s 741 mmHg 78%
    10:00 +17°C° 0 mm 2 m/s 742 mmHg 70%
    11:00 +17°C° 0.1 mm 2 m/s 742 mmHg 66%
    12:00 +18°C° 0.1 mm 2 m/s 742 mmHg 62%
    13:00 +19°C° 0.1 mm 2 m/s 742 mmHg 57%
    14:00 +19°C° 0 mm 2 m/s 741 mmHg 57%
    15:00 +19°C° 0 mm 2 m/s 741 mmHg 56%
    16:00 +20°C° 0 mm 2 m/s 741 mmHg 56%
    17:00 +19°C° 0 mm 2 m/s 741 mmHg 62%
    18:00 +18°C° 0 mm 2 m/s 741 mmHg 69%
    19:00 +17°C° 0 mm 2 m/s 741 mmHg 75%
    20:00 +15°C° 0 mm 1 m/s 742 mmHg 79%
    21:00 +14°C° 0 mm 1 m/s 742 mmHg 83%
    22:00 +12°C° 0 mm 1 m/s 742 mmHg 86%
    23:00 +12°C° 0 mm 1 m/s 742 mmHg 87%

    Après-demain, 9 Juin, Mardi

    Heure Température Précipitation Vent Pression Humidité
    00:00 +11°C° 0 mm 1 m/s 742 mmHg 87%
    01:00 +11°C° 0 mm 1 m/s 743 mmHg 88%
    02:00 +10°C° 0 mm 1 m/s 743 mmHg 89%
    03:00 +10°C° 0 mm 1 m/s 743 mmHg 89%
    04:00 +10°C° 0 mm 1 m/s 743 mmHg 89%
    05:00 +12°C° 0 mm 1 m/s 743 mmHg 85%
    06:00 +13°C° 0 mm 1 m/s 743 mmHg 81%
    07:00 +15°C° 0 mm 1 m/s 743 mmHg 76%
    08:00 +17°C° 0 mm 2 m/s 744 mmHg 71%
    09:00 +18°C° 0 mm 3 m/s 744 mmHg 66%
    10:00 +19°C° 0 mm 3 m/s 744 mmHg 60%
    11:00 +20°C° 0 mm 3 m/s 744 mmHg 58%
    12:00 +20°C° 0 mm 3 m/s 744 mmHg 55%
    13:00 +21°C° 0 mm 3 m/s 743 mmHg 53%
    14:00 +21°C° 0 mm 3 m/s 743 mmHg 54%
    15:00 +21°C° 0 mm 3 m/s 743 mmHg 55%
    16:00 +21°C° 0 mm 3 m/s 743 mmHg 56%
    17:00 +20°C° 0 mm 3 m/s 743 mmHg 63%
    18:00 +19°C° 0 mm 3 m/s 743 mmHg 70%
    19:00 +18°C° 0 mm 3 m/s 743 mmHg 76%
    20:00 +16°C° 0 mm 2 m/s 743 mmHg 81%
    21:00 +15°C° 0 mm 2 m/s 743 mmHg 86%
    22:00 +13°C° 0 mm 2 m/s 744 mmHg 91%
    23:00 +13°C° 0 mm 1 m/s 744 mmHg 91%

    10 Juin, Mercredi

    Heure Température Précipitation Vent Pression Humidité
    00:00 +13°C° 0 mm 1 m/s 744 mmHg 91%
    01:00 +13°C° 0 mm 1 m/s 743 mmHg 91%
    02:00 +13°C° 0 mm 1 m/s 743 mmHg 91%
    03:00 +13°C° 0 mm 1 m/s 743 mmHg 91%
    04:00 +14°C° 0 mm 2 m/s 743 mmHg 91%
    05:00 +14°C° 0.1 mm 2 m/s 743 mmHg 92%
    06:00 +14°C° 0.1 mm 2 m/s 743 mmHg 92%
    07:00 +13°C° 0.1 mm 3 m/s 743 mmHg 93%
    08:00 +14°C° 0 mm 2 m/s 743 mmHg 89%
    09:00 +15°C° 0 mm 2 m/s 743 mmHg 86%
    10:00 +15°C° 0 mm 2 m/s 743 mmHg 82%
    11:00 +16°C° 0 mm 2 m/s 743 mmHg 76%
    12:00 +18°C° 0 mm 2 m/s 743 mmHg 69%
    13:00 +19°C° 0 mm 3 m/s 743 mmHg 63%
    14:00 +19°C° 0 mm 3 m/s 742 mmHg 64%
    15:00 +19°C° 0 mm 3 m/s 742 mmHg 65%
    16:00 +18°C° 0 mm 3 m/s 742 mmHg 67%
    17:00 +18°C° 0 mm 3 m/s 742 mmHg 71%
    18:00 +17°C° 0 mm 2 m/s 742 mmHg 75%
    19:00 +17°C° 0 mm 2 m/s 742 mmHg 80%
    20:00 +16°C° 0 mm 2 m/s 742 mmHg 83%
    21:00 +15°C° 0 mm 1 m/s 742 mmHg 86%
    22:00 +15°C° 0 mm 1 m/s 742 mmHg 89%
    23:00 +15°C° 0.1 mm 1 m/s 742 mmHg 91%

    11 Juin, Jeudi

    Heure Température Précipitation Vent Pression Humidité
    00:00 +14°C° 0.1 mm 1 m/s 741 mmHg 93%
    01:00 +14°C° 0.1 mm 1 m/s 741 mmHg 95%
    02:00 +14°C° 0.1 mm 1 m/s 741 mmHg 95%
    03:00 +14°C° 0.1 mm 1 m/s 741 mmHg 95%
    04:00 +14°C° 0.1 mm 2 m/s 741 mmHg 96%
    05:00 +14°C° 0.1 mm 2 m/s 741 mmHg 96%
    06:00 +14°C° 0.1 mm 2 m/s 741 mmHg 96%
    07:00 +14°C° 0.1 mm 2 m/s 740 mmHg 96%
    08:00 +15°C° 0 mm 2 m/s 740 mmHg 93%
    09:00 +15°C° 0 mm 2 m/s 740 mmHg 90%
    10:00 +16°C° 0 mm 2 m/s 740 mmHg 87%
    11:00 +17°C° 0 mm 2 m/s 740 mmHg 84%
    12:00 +17°C° 0 mm 2 m/s 740 mmHg 82%
    13:00 +18°C° 0 mm 2 m/s 740 mmHg 79%
    14:00 +18°C° 0 mm 2 m/s 740 mmHg 78%
    15:00 +18°C° 0 mm 2 m/s 740 mmHg 78%
    16:00 +18°C° 0 mm 3 m/s 739 mmHg 77%
    17:00 +18°C° 0 mm 2 m/s 739 mmHg 78%
    18:00 +18°C° 0 mm 2 m/s 739 mmHg 79%
    19:00 +18°C° 0 mm 2 m/s 739 mmHg 80%
    20:00 +17°C° 0 mm 2 m/s 739 mmHg 85%
    21:00 +16°C° 0 mm 2 m/s 739 mmHg 90%
    22:00 +14°C° 0 mm 1 m/s 739 mmHg 94%
    23:00 +14°C° 0 mm 1 m/s 739 mmHg 95%

    12 Juin, Vendredi

    Heure Température Précipitation Vent Pression Humidité
    00:00 +14°C° 0 mm 1 m/s 739 mmHg 96%
    01:00 +14°C° 0 mm 1 m/s 739 mmHg 96%
    02:00 +13°C° 0 mm 1 m/s 739 mmHg 97%
    03:00 +13°C° 0 mm 1 m/s 738 mmHg 97%
    04:00 +13°C° 0 mm 1 m/s 738 mmHg 97%
    05:00 +15°C° 0 mm 1 m/s 739 mmHg 94%
    06:00 +16°C° 0 mm 1 m/s 739 mmHg 90%
    07:00 +18°C° 0 mm 1 m/s 739 mmHg 87%
    08:00 +20°C° 0 mm 1 m/s 739 mmHg 81%
    09:00 +20°C° 0 mm 2 m/s 739 mmHg 76%
    10:00 +21°C° 0 mm 2 m/s 739 mmHg 71%
    11:00 +24°C° 0 mm 2 m/s 739 mmHg 67%
    12:00 +25°C° 0 mm 2 m/s 738 mmHg 62%
    13:00 +26°C° 0 mm 3 m/s 738 mmHg 58%
    14:00 +26°C° 0.6 mm 3 m/s 738 mmHg 63%
    15:00 +25°C° 0.6 mm 3 m/s 738 mmHg 67%
    16:00 +25°C° 0.6 mm 3 m/s 737 mmHg 72%
    17:00 +24°C° 0.6 mm 3 m/s 737 mmHg 77%
    18:00 +24°C° 0.6 mm 2 m/s 737 mmHg 82%
    19:00 +23°C° 0.6 mm 2 m/s 737 mmHg 86%
    20:00 +21°C° 0.5 mm 2 m/s 737 mmHg 89%
    21:00 +19°C° 0.5 mm 2 m/s 737 mmHg 92%
    22:00 +19°C° 0.5 mm 1 m/s 737 mmHg 95%
    23:00 +19°C° 0 mm 1 m/s 737 mmHg 94%
    Voir plus